Location: Albany
(35.0000°S, 118.0000°E)
Time: 03:24:49
(UTC-05:00)

Atlas Centaur 2 - Visible Passes

Search period start: 26 January 2015 00:00
Search period end: 05 February 2015 00:00
Orbit: 460 x 1325 km, 30.4° (Epoch: 25 January)

Date Brightness Start Highest point End Pass type
(mag) Time Alt. Az. Time Alt. Az. Time Alt. Az.
26 Jan 3.8 12:56:23 35° NE 12:56:23 35° NE 13:01:18 10° E visible
26 Jan 2.9 14:39:07 27° WNW 14:43:45 60° N 14:50:31 10° E visible
27 Jan 3.7 12:54:43 39° NE 12:54:43 39° NE 12:59:59 10° E visible
27 Jan 2.9 14:37:27 27° WNW 14:42:13 62° N 14:49:09 10° E visible
28 Jan 3.6 12:53:05 43° NE 12:53:05 43° NE 12:58:37 10° E visible
28 Jan 2.9 14:35:50 26° WNW 14:40:42 63° N 14:47:46 10° ENE visible
29 Jan 3.5 12:51:31 46° ENE 12:51:31 46° ENE 12:57:12 10° E visible
29 Jan 3.0 14:34:16 27° WNW 14:39:09 62° N 14:46:21 10° ENE visible
30 Jan 3.5 12:50:03 47° ENE 12:50:03 47° ENE 12:55:45 10° E visible
30 Jan 3.0 14:32:48 27° WNW 14:37:34 60° N 14:44:53 10° ENE visible
31 Jan 3.6 12:48:42 46° ENE 12:48:42 46° ENE 12:54:16 10° E visible
31 Jan 3.1 14:31:28 28° WNW 14:35:59 57° NNW 14:43:22 10° ENE visible
01 Feb 3.7 12:47:32 42° ENE 12:47:32 42° ENE 12:52:46 10° E visible
01 Feb 3.1 14:30:19 31° WNW 14:34:22 53° NNW 14:41:48 10° ENE visible
02 Feb 3.9 12:46:35 37° ENE 12:46:35 37° ENE 12:51:14 10° ENE visible
02 Feb 3.2 14:29:24 33° WNW 14:32:43 48° NNW 14:40:10 10° NE visible
03 Feb 4.4 07:11:59 10° NNE 07:12:46 11° NNE 07:12:46 11° NNE visible
03 Feb 4.8 08:55:34 10° NW 08:55:37 10° NW 08:55:37 10° NW visible
03 Feb 4.2 12:45:54 30° ENE 12:45:54 30° ENE 12:49:40 10° ENE visible
03 Feb 3.4 14:28:44 36° NW 14:31:03 43° NNW 14:38:26 10° NE visible
04 Feb 4.1 07:08:30 10° N 07:11:36 14° NE 07:12:36 14° NE visible
04 Feb 4.3 08:53:47 10° NW 08:55:26 18° NW 08:55:26 18° NW visible
04 Feb 4.6 12:45:30 22° ENE 12:45:30 22° ENE 12:48:04 10° ENE visible
04 Feb 3.5 14:28:20 37° NW 14:29:20 38° NNW 14:36:36 10° NE visible
